Tracking 20715 objects as of 27-May-2020
HD Live streaming from Space Station
objects crossing your sky now

FLOCK 3K 4

Track FLOCK 3K 4 now!
10-day predictions
FLOCK 3K 4 is classified as:


NORAD ID: 43893
Int'l Code: 2018-111T
Perigee: 481.2 km
Apogee: 510.9 km
Inclination: 97.3 °
Period: 94.4 minutes
Semi major axis: 6867 km
RCS: Unknown
Launch date: December 27, 2018
Source: United States (US)
Launch site: VOSTOCHNY COSMODROME (VOSTO)
aabbcc
Your satellite tracking list
Your tracking list is empty




NASA's NSSDC Master Catalog

Two Line Element Set (TLE):
1 43893U 18111T   20147.83924145 +.00002570 +00000-0 +10332-3 0  9995
2 43893 097.2676 048.4591 0021625 221.0804 138.8807 15.25609831078730
Source of the keplerian elements: AFSPC